Weather History for Twentynine Palms, CA

Change the Weather History Date:

Saturday, March 16, 2013

  Actual Average Record
Temperature  
Mean Temperature 75 °F -  
Max Temperature 86 °F 72 °F 91 °F (2007)
Min Temperature 64 °F 49 °F 37 °F (2002)
Cooling Degree Days 10    
Growing Degree Days 25 (Base 50)    
Moisture  
Dew Point 23 °F    
Average Humidity 15    
Maximum Humidity 25    
Minimum Humidity 7    
Precipitation  
Precipitation 0.00 in - - ()
Sea Level Pressure  
Sea Level Pressure 29.83 in    
Wind  
Wind Speed 14 mph (NW)    
Max Wind Speed 21 mph    
Max Gust Speed 34 mph    
Visibility 10 miles    
Events      
Averages and records for this station are not official NWS values.
T = Trace of Precipitation, MM = Missing Value Source: NWS Daily Summary

Daily Weather History Graph

Daily Weather History Graph

Search for Another Location

Airport:

Trip Planner

Search our weather history database for the weather conditions in past years. The results will help you decide how hot, cold, wet, or windy it might be!

Date:

Astronomy

Mar. 16, 2013 Rise Set
Actual Time 6:53 AM PDT 6:53 PM PDT
Civil Twilight 6:28 AM PDT 7:18 PM PDT
Nautical Twilight 5:59 AM PDT 7:47 PM PDT
Astronomical Twilight 5:29 AM PDT 8:17 PM PDT
Moon 9:39 AM PDT (3/16) 11:52 PM PDT (3/16)
Length of Visible Light 12h 50m
Length of Day
12h 00m
Waxing Crescent, 24% of the Moon is Illuminated
Mar 16
Waxing Crescent
Mar 19
First Quarter
Mar 27
Full
Apr 2
Last Quarter
Apr 10
New

Hourly Weather History & Observations

Time (PDT) Temp. Dew Point Humidity Pressure Visibility Wind Dir Wind Speed Gust Speed Precip Events Conditions
12:56 AM 71.1 °F 26.1 °F 19% 29.86 in 10.0 mi North - - N/A   Clear
1:56 AM 70.0 °F 23.0 °F 17% 29.85 in 10.0 mi North - - N/A   Clear
2:56 AM 69.1 °F 19.9 °F 15% 29.83 in 10.0 mi North - - N/A   Clear
3:56 AM 66.9 °F 25.0 °F 21% 29.83 in 10.0 mi North - - N/A   Clear
4:56 AM 64.9 °F 28.0 °F 25% 29.82 in 10.0 mi North - - N/A   Clear
5:56 AM 68.0 °F 27.0 °F 21% 29.82 in 10.0 mi North - - N/A   Clear
6:56 AM 66.9 °F 26.1 °F 21% 29.83 in 10.0 mi North - - N/A   Clear
7:56 AM 68.0 °F 30.9 °F 25% 29.86 in 10.0 mi North - - N/A   Clear
8:56 AM 71.1 °F 24.1 °F 17% 29.88 in 10.0 mi NW 13.8 mph 20.7 mph N/A   Scattered Clouds
9:56 AM 75.0 °F 23.0 °F 14% 29.87 in 10.0 mi WNW 12.7 mph 18.4 mph N/A   Partly Cloudy
10:56 AM 79.0 °F 23.0 °F 13% 29.87 in 10.0 mi WNW 18.4 mph 29.9 mph N/A   Partly Cloudy
11:56 AM 81.0 °F 24.1 °F 12% 29.86 in 10.0 mi WNW 17.3 mph 28.8 mph N/A   Partly Cloudy
12:56 PM 84.0 °F 21.0 °F 10% 29.84 in 10.0 mi NW 16.1 mph 24.2 mph N/A   Clear
1:56 PM 84.9 °F 19.9 °F 9% 29.81 in 10.0 mi NW 11.5 mph 20.7 mph N/A   Clear
2:56 PM 86.0 °F 14.0 °F 7% 29.79 in 10.0 mi WNW 11.5 mph 19.6 mph N/A   Clear
3:56 PM 84.9 °F 18.0 °F 8% 29.77 in 10.0 mi North - - N/A   Clear
4:56 PM 84.9 °F 19.9 °F 9% 29.77 in 10.0 mi North - - N/A   Clear
5:56 PM 82.9 °F 21.9 °F 11% 29.77 in 10.0 mi NW 8.1 mph - N/A   Partly Cloudy
6:56 PM 80.1 °F 19.0 °F 10% 29.78 in 10.0 mi North - - N/A   Clear
7:56 PM 75.0 °F 19.0 °F 12% 29.80 in 10.0 mi NNW 8.1 mph - N/A   Clear
8:56 PM 73.0 °F 21.0 °F 14% 29.82 in 9.0 mi North - - N/A   Clear
9:56 PM 70.0 °F 19.0 °F 14% 29.83 in 10.0 mi West 20.7 mph 34.5 mph N/A   Clear
10:56 PM 68.0 °F 21.9 °F 17% 29.86 in 9.0 mi North - - N/A   Clear
11:56 PM 66.0 °F 26.1 °F 22% 29.83 in 10.0 mi North - - N/A   Clear